[[{"header":{"parameterUnit":"m.s-1","parameterCategory":1,"la1":30.2991,"la2":30.254,"lo1":-89.0895,"lo2":-89.0444,"dy":0.0017,"dx":0.0017,"nx":28,"ny":28,"refTime":"2023-10-16T03:00:00:Z","depth":0,"parameterNumber":2,"parameterNumberName":"U-component_of_WINDS"},"data":[0,0,0,0,0,0,0,0,0,0,0,0,0,0,0,0,0,0,0,0,0,0,0,0,0,0,0,0,0,0,0,0,0,0,0,0,0,0,0,0,0,0,0,0,0,0,0,0,0,0,0,0,0,0,0,0,0,0,1.5566,1.5567,0,1.5633,1.5634,1.5635,1.5629,1.5628,1.5627,1.5627,1.5694,1.5697,1.57,0,0,0,0,0,0,0,0,0,0,0,0,0,1.5434,1.5436,1.5566,1.5567,1.5568,1.5633,1.5634,1.5635,1.563,1.5628,1.5627,1.5626,1.5693,1.5697,1.57,0,0,0,0,0,0,0,0,0,0,0,0,0,1.5495,1.5437,1.5566,1.5573,1.5575,1.5633,1.5634,1.5635,1.563,1.5628,1.5627,1.5625,1.5692,1.5696,1.57,1.5756,0,0,1.5713,1.5715,0,0,0,0,0,0,0,0,1.5492,1.55,1.5571,1.5573,1.5574,1.5621,1.5612,1.5675,1.563,1.5609,1.5626,1.5625,1.5671,1.5677,1.5693,1.5759,1.5762,1.5713,1.5716,1.5717,1.5719,0,0,0,0,0,0,0,1.5487,1.5497,1.5593,1.5572,1.5574,1.5573,1.558,1.5624,1.5648,1.5611,1.561,1.5618,1.5672,1.5689,1.5694,1.5763,1.5713,1.5717,1.5719,1.5721,1.5876,1.5878,0,0,0,0,0,0,1.5482,1.5494,1.5591,1.5595,1.5529,1.5577,1.5584,1.5608,1.5647,1.5652,1.562,1.5618,1.5683,1.5689,1.5697,1.5763,1.5717,1.5721,1.5724,1.5875,1.5877,1.5879,0,0,0,0,0,0,1.5479,1.549,1.5588,1.5544,1.5556,1.558,1.5607,1.561,1.5627,1.5654,1.5658,1.5633,1.5682,1.5691,1.5741,1.5765,1.5723,1.5727,1.5873,1.5875,1.5878,1.5896,0,0,0,0,0,0,1.5475,1.5489,1.5511,1.5545,1.5559,1.5631,1.5608,1.5612,1.5634,1.5632,1.5667,1.5672,1.5681,1.5735,1.5745,1.577,1.573,1.5871,1.5874,1.5877,1.5893,1.5899,1.5903,0,0,0,0,0,1.547,1.5513,1.5512,1.5523,1.5586,1.5632,1.564,1.5651,1.5636,1.5657,1.5675,1.567,1.5761,1.574,1.5751,1.5778,1.5869,1.5873,1.5877,1.5891,1.5898,1.5903,0,0,0,0,0,0,1.5481,1.5518,1.5517,1.5572,1.5599,1.5631,1.5659,1.5658,1.569,1.5687,1.5698,1.5706,1.5756,1.5772,1.5748,1.5833,1.5813,1.5819,1.582,1.5827,1.5832,1.5826,1.5733,0,0,0,0,0,1.549,1.5525,1.5555,1.5601,1.5615,1.5634,1.5655,1.5661,1.5689,1.5701,1.5722,1.575,1.5784,1.5807,1.584,1.5896,1.5903,1.592,1.5925,1.593,1.5934,1.5964,1.5971,1.5891,1.5891,1.5891,0,0,1.5508,1.5533,1.5554,1.5603,1.5625,1.5661,1.5644,1.5682,1.5708,1.5707,1.5754,1.5771,1.5803,1.5856,1.588,1.5871,1.5958,1.5934,1.5937,1.594,1.5968,1.5976,1.5983,1.5894,1.5893,1.5893,0,0,1.5559,1.5582,1.5622,1.5644,1.5678,1.5691,1.57,1.5733,1.5744,1.5793,1.5792,1.5823,1.5883,1.5905,1.5925,1.5985,1.5982,1.5996,1.6022,1.6051,1.6057,1.6063,1.6083,1.609,1.6001,1.6001,1.6001,0,1.5577,1.5631,1.5643,1.5681,1.5702,1.5703,1.5743,1.5764,1.5807,1.5822,1.5811,1.5886,1.5907,1.5965,1.598,1.5996,1.6006,1.5991,1.6055,1.6061,1.6066,1.6085,1.6093,1.6002,1.6002,1.6002,1.6002,0,1.5651,1.5688,1.5717,1.5758,1.5783,1.5822,1.5839,1.5863,1.5867,1.5881,1.593,1.5956,1.5995,1.6009,1.6014,1.6068,1.6061,1.6053,1.6033,1.6075,1.6093,1.6101,1.6004,1.6004,1.6003,1.6003,0,0,1.5709,1.5756,1.5766,1.5785,1.5822,1.5851,1.589,1.5928,1.5948,1.5978,1.601,1.6061,1.6054,1.6076,1.6083,1.6108,1.6153,1.6097,1.6098,1.6105,1.6212,1.6216,1.6225,1.6152,1.6153,1.6155,1.6209,0,1.5762,1.5832,1.5843,1.5904,1.5938,1.594,1.5974,1.6,1.6015,1.6045,1.6062,1.6097,1.6086,1.6099,1.6124,1.6142,1.6174,1.6138,1.6181,1.6182,1.6171,1.6234,1.6239,1.6289,1.6216,1.6217,1.6218,0,1.5833,1.5865,1.5929,1.5961,1.5976,1.6006,1.6041,1.6071,1.6101,1.611,1.6135,1.6139,1.6179,1.6159,1.6215,1.619,1.6209,1.622,1.6222,1.6225,1.6201,1.6237,1.6305,1.6312,1.623,1.6229,1.6228,0,1.5867,1.5925,1.5971,1.5987,1.6026,1.6047,1.6065,1.6094,1.6115,1.6147,1.6161,1.6196,1.6215,1.6243,1.6256,1.6241,1.631,1.6292,1.6318,1.6317,1.633,1.6329,1.6401,1.6346,1.6346,1.6346,1.6345,0,1.5924,1.5962,1.5986,1.6014,1.6057,1.6071,1.6113,1.613,1.6156,1.6187,1.6191,1.622,1.6237,1.6268,1.6279,1.6323,1.6332,1.6339,1.6341,1.6338,1.6337,1.6348,1.6344,1.6348,1.6347,1.6347,1.6346,0,1.5967,1.5985,1.6035,1.6068,1.6078,1.6108,1.6136,1.6163,1.6178,1.6217,1.6227,1.625,1.6288,1.6304,1.635,1.6358,1.6407,1.6407,1.6396,1.6396,1.6421,1.6418,1.6501,1.6512,1.6452,1.6452,1.6453,0,1.6001,1.6031,1.6068,1.6089,1.6107,1.6141,1.6163,1.6178,1.6201,1.6238,1.626,1.6298,1.6328,1.6387,1.6408,1.6443,1.6443,1.647,1.6448,1.6443,1.6441,1.6438,1.6441,1.6473,1.6474,1.6474,1.6475,0,1.6059,1.6067,1.6099,1.6134,1.6161,1.619,1.6217,1.6235,1.6254,1.628,1.6317,1.6341,1.6388,1.6424,1.6461,1.6479,1.648,1.6482,1.6489,1.6485,1.6476,1.6479,1.6405,1.6479,1.6479,1.6478,1.6478,1.6478,1.6098,1.6124,1.6154,1.619,1.6212,1.6238,1.6265,1.6284,1.6316,1.6355,1.6362,1.6402,1.6431,1.6481,1.65,1.6531,1.6525,1.6536,1.6538,1.654,1.6541,1.6473,1.6538,1.6538,1.6538,1.6538,1.6538,0,1.6155,1.6174,1.6207,1.6246,1.6274,1.6274,1.6304,1.6328,1.6363,1.639,1.642,1.6464,1.6499,1.6523,1.6559,1.658,1.6581,1.6589,1.6586,1.659,1.6546,1.6534,1.6587,1.6587,1.6587,1.6587,1.6587,1.6587,1.6187,1.6231,1.6242,1.6297,1.6317,1.6356,1.6373,1.6397,1.6419,1.6467,1.6497,1.6513,1.6539,1.6577,1.6609,1.6615,1.6628,1.6635,1.6641,1.6598,1.6593,1.6588,1.6578,1.6638,1.6638,1.6682,1.6683,1.6683]},{"header":{"parameterUnit":"m.s-1","parameterCategory":1,"la1":30.2991,"la2":30.254,"lo1":-89.0895,"lo2":-89.0444,"dy":0.0017,"dx":0.0017,"nx":28,"ny":28,"refTime":"2023-10-16T03:00:00:Z","depth":0,"parameterNumber":3,"parameterNumberName":"V-component_of_WINDS"},"data":[0,0,0,0,0,0,0,0,0,0,0,0,0,0,0,0,0,0,0,0,0,0,0,0,0,0,0,0,0,0,0,0,0,0,0,0,0,0,0,0,0,0,0,0,0,0,0,0,0,0,0,0,0,0,0,0,0,0,2.1199,2.1199,0,2.117,2.117,2.117,2.1152,2.1151,2.1151,2.1151,2.112,2.1119,2.1118,0,0,0,0,0,0,0,0,0,0,0,0,0,2.1235,2.1235,2.1199,2.1199,2.1199,2.117,2.117,2.117,2.1152,2.1151,2.1151,2.1151,2.112,2.1119,2.1118,0,0,0,0,0,0,0,0,0,0,0,0,0,2.1214,2.1234,2.12,2.1186,2.1185,2.1171,2.117,2.117,2.1152,2.1151,2.1151,2.1151,2.112,2.1119,2.1118,2.1114,0,0,2.1114,2.1114,0,0,0,0,0,0,0,0,2.1215,2.1213,2.1189,2.1187,2.1186,2.1164,2.1171,2.1151,2.1152,2.1164,2.1151,2.1151,2.1134,2.1132,2.1127,2.1112,2.1111,2.1114,2.1114,2.1113,2.1113,0,0,0,0,0,0,0,2.1217,2.1214,2.1188,2.1188,2.1186,2.118,2.1177,2.1167,2.115,2.1163,2.1162,2.1159,2.1134,2.1128,2.1126,2.1111,2.1114,2.1113,2.1113,2.1112,2.1087,2.1087,0,0,0,0,0,0,2.1221,2.1215,2.1189,2.1187,2.12,2.118,2.1176,2.1171,2.115,2.1147,2.1159,2.1158,2.113,2.1127,2.1125,2.1116,2.1113,2.1112,2.1111,2.1087,2.1087,2.1087,0,0,0,0,0,0,2.1222,2.1219,2.119,2.1201,2.1197,2.118,2.1174,2.1171,2.1165,2.1147,2.1144,2.1156,2.113,2.1126,2.1116,2.1115,2.1112,2.1111,2.1087,2.1087,2.1087,2.1101,0,0,0,0,0,0,2.1223,2.1219,2.1219,2.1201,2.1196,2.1183,2.1174,2.117,2.1164,2.1162,2.1144,2.1141,2.113,2.1118,2.1115,2.1114,2.111,2.1087,2.1087,2.1087,2.1101,2.1102,2.1103,0,0,0,0,0,2.1224,2.1224,2.1219,2.1216,2.1195,2.1183,2.118,2.1168,2.1164,2.1162,2.115,2.1142,2.1116,2.1117,2.1114,2.1112,2.1087,2.1087,2.1087,2.11,2.1102,2.1103,0,0,0,0,0,0,2.1242,2.1221,2.1215,2.121,2.1198,2.118,2.1178,2.117,2.1159,2.1158,2.1142,2.1137,2.1128,2.1119,2.112,2.1105,2.11,2.11,2.1111,2.1112,2.1113,2.1115,2.1109,0,0,0,0,0,2.1245,2.1238,2.122,2.1217,2.1211,2.1195,2.119,2.1181,2.1168,2.1163,2.115,2.1137,2.1125,2.1119,2.1107,2.1099,2.1093,2.1096,2.1097,2.1098,2.1097,2.1089,2.1089,2.1087,2.1087,2.1087,0,0,2.1252,2.124,2.1236,2.122,2.121,2.1201,2.1192,2.1184,2.1176,2.1161,2.115,2.114,2.1124,2.1114,2.1109,2.1106,2.1096,2.1098,2.1099,2.1098,2.1089,2.1089,2.109,2.1087,2.1087,2.1087,0,0,2.1259,2.125,2.1245,2.1235,2.122,2.1209,2.1208,2.119,2.1183,2.1172,2.1159,2.115,2.1131,2.112,2.1111,2.1111,2.1102,2.1108,2.1113,2.1105,2.1105,2.1105,2.1103,2.1102,2.1107,2.1108,2.1108,0,2.1269,2.1257,2.1244,2.1236,2.1228,2.1213,2.1207,2.1197,2.1179,2.1173,2.117,2.1145,2.1133,2.1119,2.1119,2.1113,2.1109,2.111,2.1106,2.1106,2.1106,2.1104,2.1103,2.1108,2.1108,2.1108,2.1108,0,2.1269,2.126,2.1258,2.124,2.1232,2.1225,2.1208,2.1201,2.1192,2.1181,2.1168,2.1153,2.1137,2.1133,2.1125,2.1117,2.1115,2.111,2.1104,2.1107,2.1104,2.1104,2.1109,2.1109,2.1109,2.1109,0,0,2.1288,2.1262,2.1261,2.1252,2.1233,2.1225,2.1216,2.12,2.1193,2.1181,2.1171,2.1154,2.1148,2.1138,2.1128,2.1121,2.1119,2.1116,2.1115,2.1116,2.1106,2.111,2.1109,2.1113,2.1113,2.1113,2.1107,0,2.1291,2.1276,2.1262,2.125,2.124,2.1226,2.1217,2.1203,2.1192,2.1181,2.1167,2.1155,2.1149,2.1143,2.1135,2.1121,2.1117,2.1121,2.1102,2.1101,2.1106,2.1108,2.1113,2.1108,2.1106,2.1106,2.1106,0,2.1294,2.1281,2.1269,2.1248,2.1243,2.1236,2.122,2.121,2.1193,2.1185,2.1173,2.1161,2.1148,2.1145,2.1125,2.1129,2.1119,2.1111,2.111,2.1107,2.1103,2.1104,2.1107,2.1106,2.1104,2.1105,2.1105,0,2.1307,2.1287,2.1276,2.1268,2.1245,2.124,2.1229,2.1212,2.1203,2.1188,2.1181,2.1165,2.1156,2.1142,2.1125,2.1124,2.1107,2.1102,2.1098,2.1098,2.1095,2.1095,2.1095,2.1091,2.1091,2.1091,2.1091,0,2.1312,2.1304,2.1281,2.1274,2.1264,2.1248,2.1238,2.1226,2.121,2.1199,2.1185,2.1175,2.1154,2.1141,2.1127,2.1112,2.1108,2.11,2.1096,2.11,2.1101,2.1094,2.1093,2.1091,2.1091,2.1091,2.1091,0,2.1324,2.1309,2.1296,2.1274,2.1268,2.1261,2.1242,2.1233,2.122,2.1207,2.1202,2.1181,2.1164,2.1147,2.1124,2.1114,2.1099,2.1095,2.1105,2.1103,2.1099,2.1099,2.1093,2.109,2.1089,2.109,2.109,0,2.1328,2.1322,2.1299,2.1291,2.1281,2.1268,2.1258,2.1241,2.1231,2.1209,2.1203,2.1185,2.117,2.1143,2.1124,2.1106,2.11,2.1099,2.1097,2.1101,2.1098,2.1098,2.1096,2.11,2.11,2.11,2.11,0,2.1336,2.1328,2.1315,2.1298,2.1287,2.1273,2.1258,2.1252,2.1231,2.122,2.1203,2.1191,2.1166,2.1148,2.1126,2.1114,2.1102,2.1101,2.1099,2.1103,2.1108,2.1103,2.1105,2.1101,2.1101,2.1101,2.1101,2.1101,2.1343,2.1335,2.1318,2.1303,2.129,2.1276,2.1266,2.1251,2.1237,2.1216,2.1206,2.1188,2.1168,2.1138,2.1126,2.111,2.1107,2.1104,2.1103,2.1102,2.1102,2.1111,2.1106,2.1106,2.1106,2.1106,2.1106,0,2.1348,2.1335,2.1322,2.1301,2.1289,2.128,2.1263,2.1252,2.1237,2.122,2.1204,2.1183,2.1164,2.1143,2.1123,2.1114,2.1108,2.1109,2.1109,2.1105,2.1107,2.1111,2.1114,2.1114,2.1114,2.1114,2.1114,2.1114,2.1349,2.1336,2.1325,2.1304,2.1291,2.1274,2.1264,2.125,2.1236,2.1213,2.1197,2.1184,2.1164,2.1142,2.1123,2.1117,2.1109,2.1111,2.1104,2.1106,2.1106,2.1105,2.1108,2.111,2.111,2.1103,2.1103,2.1103]}]]